Time,TemperatureF,DewpointF,PressureIn,WindDirection,WindDirectionDegrees,WindSpeedMPH,WindSpeedGustMPH,Humidity,HourlyPrecipIn,Conditions,Clouds,dailyrainin,SoftwareType,DateUTC
2014-01-01 00:14:00,3.3,-2.0,30.33,NW,315,9.0,18.0,79,0.00,,,0.00,weatherlink.com 1.10,2014-01-01 05:14:00,
2014-01-01 00:29:00,3.1,-2.0,30.33,NW,311,10.0,14.0,80,0.00,,,0.00,weatherlink.com 1.10,2014-01-01 05:29:00,
2014-01-01 00:44:00,3.1,-2.0,30.34,West,281,7.0,17.0,81,0.00,,,0.00,weatherlink.com 1.10,2014-01-01 05:44:00,
2014-01-01 00:59:00,2.9,-2.0,30.34,West,277,7.0,17.0,81,0.00,,,0.00,weatherlink.com 1.10,2014-01-01 05:59:00,
2014-01-01 01:14:00,2.4,-2.0,30.34,WNW,286,4.0,8.0,82,0.00,,,0.00,weatherlink.com 1.10,2014-01-01 06:14:00,
2014-01-01 01:29:00,1.9,-3.0,30.35,NW,307,6.0,12.0,81,0.00,,,0.00,weatherlink.com 1.10,2014-01-01 06:29:00,
2014-01-01 01:44:00,1.5,-3.0,30.36,WNW,290,5.0,10.0,82,0.00,,,0.00,weatherlink.com 1.10,2014-01-01 06:44:00,
2014-01-01 01:59:00,1.8,-2.0,30.37,WSW,258,6.0,8.0,84,0.00,,,0.00,weatherlink.com 1.10,2014-01-01 06:59:00,
2014-01-01 02:14:00,2.2,-2.0,30.38,NW,306,5.0,8.0,84,0.00,,,0.00,weatherlink.com 1.10,2014-01-01 07:14:00,
2014-01-01 02:29:00,3.2,-2.0,30.38,NNW,331,12.0,13.0,80,0.00,,,0.00,weatherlink.com 1.10,2014-01-01 07:29:00,
2014-01-01 02:44:00,2.7,-2.0,30.39,NNE,12,11.0,16.0,79,0.00,,,0.00,weatherlink.com 1.10,2014-01-01 07:44:00,
2014-01-01 02:59:00,2.0,-4.0,30.40,North,360,13.0,15.0,77,0.00,,,0.00,weatherlink.com 1.10,2014-01-01 07:59:00,
2014-01-01 03:14:00,1.6,-4.0,30.41,NNW,346,10.0,16.0,76,0.00,,,0.00,weatherlink.com 1.10,2014-01-01 08:14:00,
2014-01-01 03:30:00,1.2,-4.0,30.41,North,5,11.0,15.0,77,0.00,,,0.00,weatherlink.com 1.10,2014-01-01 08:30:00,
2014-01-01 03:45:00,0.5,-5.0,30.41,NNE,32,7.0,14.0,76,0.00,,,0.00,weatherlink.com 1.10,2014-01-01 08:45:00,
2014-01-01 04:00:00,-0.7,-6.0,30.42,North,9,11.0,14.0,77,0.00,,,0.00,weatherlink.com 1.10,2014-01-01 09:00:00,
2014-01-01 04:15:00,-1.6,-7.0,30.43,NE,38,8.0,13.0,76,0.00,,,0.00,weatherlink.com 1.10,2014-01-01 09:15:00,
2014-01-01 04:30:00,-2.3,-8.0,30.43,NNE,20,8.0,10.0,75,0.00,,,0.00,weatherlink.com 1.10,2014-01-01 09:30:00,
2014-01-01 04:45:00,-3.0,-9.0,30.44,NNE,22,7.0,12.0,75,0.00,,,0.00,weatherlink.com 1.10,2014-01-01 09:45:00,
2014-01-01 05:00:00,-3.4,-9.0,30.44,NNE,12,10.0,13.0,75,0.00,,,0.00,weatherlink.com 1.10,2014-01-01 10:00:00,
2014-01-01 05:15:00,-3.7,-10.0,30.45,NNE,19,13.0,18.0,74,0.00,,,0.00,weatherlink.com 1.10,2014-01-01 10:15:00,
2014-01-01 05:30:00,-4.0,-10.0,30.46,North,355,12.0,14.0,74,0.00,,,0.00,weatherlink.com 1.10,2014-01-01 10:30:00,
2014-01-01 05:45:00,-4.2,-11.0,30.46,NNE,19,9.0,13.0,73,0.00,,,0.00,weatherlink.com 1.10,2014-01-01 10:45:00,
2014-01-01 06:00:00,-4.3,-10.0,30.48,North,360,5.0,10.0,75,0.00,,,0.00,weatherlink.com 1.10,2014-01-01 11:00:00,
2014-01-01 06:15:00,-4.6,-10.0,30.48,NE,50,3.0,10.0,76,0.00,,,0.00,weatherlink.com 1.10,2014-01-01 11:15:00,
2014-01-01 06:31:00,-5.1,-11.0,30.49,NNE,30,4.0,11.0,76,0.00,,,0.00,weatherlink.com 1.10,2014-01-01 11:31:00,
2014-01-01 06:46:00,-5.5,-12.0,30.50,NW,316,10.0,12.0,75,0.00,,,0.00,weatherlink.com 1.10,2014-01-01 11:46:00,
2014-01-01 07:01:00,-5.8,-12.0,30.50,NNE,32,8.0,14.0,74,0.00,,,0.00,weatherlink.com 1.10,2014-01-01 12:01:00,
2014-01-01 07:16:00,-5.9,-12.0,30.50,NNW,347,9.0,12.0,74,0.00,,,0.00,weatherlink.com 1.10,2014-01-01 12:16:00,
2014-01-01 07:31:00,-6.0,-12.0,30.50,NE,51,9.0,11.0,74,0.00,,,0.00,weatherlink.com 1.10,2014-01-01 12:31:00,
2014-01-01 07:46:00,-6.3,-13.0,30.51,NE,49,13.0,14.0,74,0.00,,,0.00,weatherlink.com 1.10,2014-01-01 12:46:00,
2014-01-01 08:01:00,-6.3,-13.0,30.52,NNE,19,9.0,12.0,74,0.00,,,0.00,weatherlink.com 1.10,2014-01-01 13:01:00,
2014-01-01 08:16:00,-7.0,-14.0,30.53,ENE,57,11.0,13.0,73,0.00,,,0.00,weatherlink.com 1.10,2014-01-01 13:16:00,
2014-01-01 08:31:00,-7.6,-14.0,30.54,ENE,69,3.0,12.0,73,0.00,,,0.00,weatherlink.com 1.10,2014-01-01 13:31:00,
2014-01-01 08:46:00,-7.7,-14.0,30.54,NE,53,11.0,13.0,74,0.00,,,0.00,weatherlink.com 1.10,2014-01-01 13:46:00,
2014-01-01 09:01:00,-7.7,-14.0,30.54,NE,34,9.0,13.0,72,0.00,,,0.00,weatherlink.com 1.10,2014-01-01 14:01:00,
2014-01-01 09:16:00,-7.8,-14.0,30.55,ENE,61,5.0,14.0,74,0.00,,,0.00,weatherlink.com 1.10,2014-01-01 14:16:00,
2014-01-01 09:31:00,-7.5,-14.0,30.56,NNE,16,9.0,12.0,73,0.00,,,0.00,weatherlink.com 1.10,2014-01-01 14:31:00,
2014-01-01 09:46:00,-7.9,-15.0,30.57,ENE,57,10.0,12.0,72,0.00,,,0.00,weatherlink.com 1.10,2014-01-01 14:46:00,
2014-01-01 10:02:00,-7.8,-15.0,30.58,NE,49,7.0,11.0,72,0.00,,,0.00,weatherlink.com 1.10,2014-01-01 15:02:00,
2014-01-01 10:17:00,-7.2,-14.0,30.58,NNE,20,9.0,11.0,71,0.00,,,0.00,weatherlink.com 1.10,2014-01-01 15:17:00,
2014-01-01 10:32:00,-7.1,-14.0,30.58,NE,55,10.0,11.0,71,0.00,,,0.00,weatherlink.com 1.10,2014-01-01 15:32:00,
2014-01-01 10:47:00,-7.1,-14.0,30.59,NE,43,11.0,11.0,70,0.00,,,0.00,weatherlink.com 1.10,2014-01-01 15:47:00,
2014-01-01 11:02:00,-7.0,-15.0,30.59,NNW,346,6.0,11.0,69,0.00,,,0.00,weatherlink.com 1.10,2014-01-01 16:02:00,
2014-01-01 11:17:00,-6.6,-14.0,30.59,NE,52,6.0,10.0,71,0.00,,,0.00,weatherlink.com 1.10,2014-01-01 16:17:00,
2014-01-01 11:32:00,-6.7,-14.0,30.59,NNW,344,5.0,9.0,71,0.00,,,0.00,weatherlink.com 1.10,2014-01-01 16:32:00,
2014-01-01 11:47:00,-6.8,-14.0,30.59,ENE,71,5.0,9.0,71,0.00,,,0.00,weatherlink.com 1.10,2014-01-01 16:47:00,
2014-01-01 12:02:00,-6.4,-14.0,30.59,ENE,60,7.0,9.0,71,0.00,,,0.00,weatherlink.com 1.10,2014-01-01 17:02:00,
2014-01-01 12:17:00,-6.4,-14.0,30.58,North,5,4.0,8.0,71,0.00,,,0.00,weatherlink.com 1.10,2014-01-01 17:17:00,
2014-01-01 12:32:00,-5.9,-13.0,30.58,NE,38,4.0,7.0,70,0.00,,,0.00,weatherlink.com 1.10,2014-01-01 17:32:00,
2014-01-01 12:47:00,-5.6,-13.0,30.58,NE,41,2.0,7.0,70,0.00,,,0.00,weatherlink.com 1.10,2014-01-01 17:47:00,
2014-01-01 13:02:00,-5.4,-13.0,30.58,NE,34,4.0,7.0,70,0.00,,,0.00,weatherlink.com 1.10,2014-01-01 18:02:00,
2014-01-01 13:18:00,-5.3,-12.0,30.57,North,355,2.0,7.0,71,0.00,,,0.00,weatherlink.com 1.10,2014-01-01 18:18:00,
2014-01-01 13:33:00,-4.9,-12.0,30.57,NE,34,3.0,5.0,72,0.00,,,0.00,weatherlink.com 1.10,2014-01-01 18:33:00,
2014-01-01 13:48:00,-4.3,-11.0,30.57,NNE,30,1.0,6.0,71,0.00,,,0.00,weatherlink.com 1.10,2014-01-01 18:48:00,
2014-01-01 14:03:00,-3.7,-11.0,30.57,NNE,13,3.0,5.0,70,0.00,,,0.00,weatherlink.com 1.10,2014-01-01 19:03:00,
2014-01-01 14:18:00,-3.4,-11.0,30.56,NNE,33,3.0,4.0,71,0.00,,,0.00,weatherlink.com 1.10,2014-01-01 19:18:00,
2014-01-01 14:33:00,-3.0,-10.0,30.56,NNE,12,1.0,4.0,72,0.00,,,0.00,weatherlink.com 1.10,2014-01-01 19:33:00,
2014-01-01 14:48:00,-2.7,-10.0,30.56,NNE,32,2.0,4.0,72,0.00,,,0.00,weatherlink.com 1.10,2014-01-01 19:48:00,
2014-01-01 15:03:00,-2.7,-10.0,30.56,NNW,346,6.0,8.0,72,0.00,,,0.00,weatherlink.com 1.10,2014-01-01 20:03:00,
2014-01-01 15:18:00,-3.0,-11.0,30.55,NNW,348,4.0,10.0,69,0.00,,,0.00,weatherlink.com 1.10,2014-01-01 20:18:00,
2014-01-01 15:33:00,-2.2,-10.0,30.55,NW,322,5.0,9.0,69,0.00,,,0.00,weatherlink.com 1.10,2014-01-01 20:33:00,
2014-01-01 15:48:00,-2.3,-10.0,30.55,NW,320,6.0,9.0,68,0.00,,,0.00,weatherlink.com 1.10,2014-01-01 20:48:00,
2014-01-01 16:03:00,-2.4,-10.0,30.55,NNW,340,7.0,9.0,70,0.00,,,0.00,weatherlink.com 1.10,2014-01-01 21:03:00,
2014-01-01 16:18:00,-2.4,-10.0,30.55,NNW,332,7.0,8.0,70,0.00,,,0.00,weatherlink.com 1.10,2014-01-01 21:18:00,
2014-01-01 16:49:00,-3.6,-10.0,30.55,East,86,2.0,3.0,75,0.00,,,0.00,weatherlink.com 1.10,2014-01-01 21:49:00,
2014-01-01 17:04:00,-4.4,-10.0,30.55,ENE,69,1.0,2.0,76,0.00,,,0.00,weatherlink.com 1.10,2014-01-01 22:04:00,
2014-01-01 17:19:00,-4.5,-10.0,30.55,East,81,2.0,2.0,77,0.00,,,0.00,weatherlink.com 1.10,2014-01-01 22:19:00,
2014-01-01 17:34:00,-4.9,-10.0,30.55,East,97,1.0,3.0,78,0.00,,,0.00,weatherlink.com 1.10,2014-01-01 22:34:00,
2014-01-01 17:49:00,-5.0,-10.0,30.55,East,98,2.0,2.0,78,0.00,,,0.00,weatherlink.com 1.10,2014-01-01 22:49:00,
2014-01-01 18:04:00,-5.1,-10.0,30.55,East,101,3.0,5.0,78,0.00,,,0.00,weatherlink.com 1.10,2014-01-01 23:04:00,
2014-01-01 18:19:00,-5.3,-10.0,30.55,ESE,106,1.0,3.0,79,0.00,,,0.00,weatherlink.com 1.10,2014-01-01 23:19:00,
2014-01-01 18:34:00,-5.8,-11.0,30.55,ESE,107,1.0,2.0,79,0.00,,,0.00,weatherlink.com 1.10,2014-01-01 23:34:00,
2014-01-01 18:49:00,-5.6,-11.0,30.56,ESE,111,0.0,1.0,79,0.00,,,0.00,weatherlink.com 1.10,2014-01-01 23:49:00,
2014-01-01 19:19:00,-5.8,-11.0,30.55,ESE,113,0.0,1.0,79,0.00,,,0.00,weatherlink.com 1.10,2014-01-02 00:19:00,
2014-01-01 19:35:00,-6.6,-12.0,30.55,ESE,113,0.0,1.0,79,0.00,,,0.00,weatherlink.com 1.10,2014-01-02 00:35:00,
2014-01-01 19:50:00,-6.7,-11.0,30.56,ESE,110,0.0,1.0,80,0.00,,,0.00,weatherlink.com 1.10,2014-01-02 00:50:00,
2014-01-01 20:05:00,-7.4,-12.0,30.56,East,88,0.0,2.0,80,0.00,,,0.00,weatherlink.com 1.10,2014-01-02 01:05:00,
2014-01-01 20:20:00,-5.6,-10.0,30.55,ENE,63,1.0,4.0,80,0.00,,,0.00,weatherlink.com 1.10,2014-01-02 01:20:00,
2014-01-01 20:35:00,-4.6,-10.0,30.55,ENE,63,1.0,4.0,77,0.00,,,0.00,weatherlink.com 1.10,2014-01-02 01:35:00,
2014-01-01 20:50:00,-5.6,-11.0,30.55,ENE,72,1.0,4.0,77,0.00,,,0.00,weatherlink.com 1.10,2014-01-02 01:50:00,
2014-01-01 21:05:00,-6.5,-12.0,30.54,East,80,3.0,5.0,78,0.00,,,0.00,weatherlink.com 1.10,2014-01-02 02:05:00,
2014-01-01 21:20:00,-6.7,-12.0,30.54,ENE,72,1.0,4.0,79,0.00,,,0.00,weatherlink.com 1.10,2014-01-02 02:20:00,
2014-01-01 21:35:00,-5.8,-10.0,30.54,ENE,78,2.0,4.0,80,0.00,,,0.00,weatherlink.com 1.10,2014-01-02 02:35:00,
2014-01-01 21:50:00,-4.9,-10.0,30.54,ESE,106,1.0,7.0,78,0.00,,,0.00,weatherlink.com 1.10,2014-01-02 02:50:00,
2014-01-01 22:05:00,-5.1,-10.0,30.55,East,82,2.0,4.0,79,0.00,,,0.00,weatherlink.com 1.10,2014-01-02 03:05:00,
2014-01-01 22:21:00,-4.7,-10.0,30.55,ENE,63,3.0,4.0,79,0.00,,,0.00,weatherlink.com 1.10,2014-01-02 03:21:00,
2014-01-01 22:35:00,-4.7,-10.0,30.55,ENE,61,2.0,4.0,78,0.00,,,0.00,weatherlink.com 1.10,2014-01-02 03:35:00,
2014-01-01 22:50:00,-4.6,-10.0,30.55,East,92,3.0,7.0,78,0.00,,,0.00,weatherlink.com 1.10,2014-01-02 03:50:00,
2014-01-01 23:06:00,-2.8,-8.0,30.55,ENE,74,3.0,9.0,77,0.00,,,0.00,weatherlink.com 1.10,2014-01-02 04:06:00,
2014-01-01 23:21:00,-2.8,-8.0,30.54,East,91,7.0,8.0,77,0.00,,,0.00,weatherlink.com 1.10,2014-01-02 04:21:00,
2014-01-01 23:36:00,-2.5,-9.0,30.55,ENE,71,5.0,8.0,75,0.00,,,0.00,weatherlink.com 1.10,2014-01-02 04:36:00,
2014-01-01 23:51:00,-2.7,-9.0,30.55,ENE,76,4.0,8.0,75,0.00,,,0.00,weatherlink.com 1.10,2014-01-02 04:51:00,